"Gas Day","BTU","CHDP","Wobbe Index","CO2","N2","Gravity","Methane","Ethane","Propane","Ibutane","Nbutane","Ipentane","Npentane","C6+"
"2024-05-03 00:00:00.0","1032.1411","38.3625","1319.2223","0.5298","3.5273","0.6121","90.1227","4.6734","0.8130","0.0474","0.1060","0.0165","0.0190","0.1448"
"2024-05-02 00:00:00.0","1044.6055","37.3507","1328.8109","0.5345","3.3239","0.6180","89.1172","5.6910","1.0119","0.0452","0.1025","0.0159","0.0187","0.1392"
"2024-05-01 00:00:00.0","1057.8456","63.8328","1334.5891","0.6476","3.3165","0.6283","88.4735","5.7723","1.1006","0.0849","0.2073","0.0367","0.0438","0.3169"
"2024-04-30 00:00:00.0","1045.0577","46.1620","1326.5783","0.6520","3.3615","0.6206","89.0823","5.4754","0.9741","0.0650","0.1470","0.0223","0.0262","0.1943"
"2024-04-29 00:00:00.0","1023.4472","12.0662","1315.8129","0.6295","3.2284","0.6050","91.0171","4.2945","0.6545","0.0331","0.0653","0.0068","0.0076","0.0632"
"2024-04-28 00:00:00.0","1034.5389","18.8552","1321.4130","0.6559","3.2702","0.6129","89.7952","5.1722","0.8663","0.0472","0.0941","0.0094","0.0103","0.0792"
"2024-04-27 00:00:00.0","1063.7658","49.7278","1334.8204","0.6408","3.5964","0.6349","87.2484","6.6301","1.1603","0.0887","0.2158","0.0385","0.0460","0.3350"
"2024-04-26 00:00:00.0","1146.4206","125.7705","1379.9372","0.8415","3.4568","0.6898","83.8532","6.8247","2.5034","0.2666","0.6957","0.1366","0.1661","1.2555"
"2024-04-25 00:00:00.0","1023.1700","15.0086","1314.3718","0.6304","3.3381","0.6060","90.7870","4.4706","0.5810","0.0326","0.0685","0.0089","0.0099","0.0730"
"2024-04-24 00:00:00.0","1031.2463","20.0229","1320.3946","0.5874","3.2936","0.6100","90.0991","5.2000","0.5816","0.0349","0.0808","0.0116","0.0136","0.0974"
"2024-04-23 00:00:00.0","1048.5878","11.5634","1333.6220","0.5592","3.0719","0.6182","88.6009","6.6043","0.9878","0.0304","0.0644","0.0083","0.0093","0.0634"
"2024-04-22 00:00:00.0","1050.0925","11.5579","1331.3644","0.3618","3.6421","0.6221","88.0917","6.1539","1.5892","0.0285","0.0559","0.0073","0.0082","0.0614"
"2024-04-21 00:00:00.0","1021.0803","25.7396","1312.2221","0.5098","3.5980","0.6055","90.9478","4.0814","0.6191","0.0386","0.0820","0.0113","0.0126","0.0996"
"2024-04-20 00:00:00.0","1019.8949","23.8169","1311.6696","0.4778","3.6339","0.6046","91.0274","4.0388","0.5887","0.0370","0.0790","0.0112","0.0124","0.0938"
"2024-04-19 00:00:00.0","1014.1890","16.8007","1309.4555","0.4036","3.6459","0.5999","91.6179","3.7022","0.4534","0.0267","0.0563","0.0087","0.0098","0.0756"
"2024-04-18 00:00:00.0","1012.3371","13.0262","1310.5492","0.4012","3.4613","0.5967","92.0979","3.5423","0.3602","0.0179","0.0376","0.0065","0.0077","0.0674"
"2024-04-17 00:00:00.0","1011.9043","12.5356","1309.8980","0.3991","3.4983","0.5968","92.0683","3.5382","0.3601","0.0179","0.0377","0.0066","0.0077","0.0663"
"2024-04-16 00:00:00.0","1011.9926","9.2442","1310.6816","0.4092","3.4206","0.5962","92.1586","3.5392","0.3488","0.0165","0.0346","0.0060","0.0072","0.0592"
"2024-04-15 00:00:00.0","1012.8653","11.2147","1308.7603","0.3748","3.6819","0.5989","91.6841","3.6665","0.4361","0.0246","0.0509","0.0082","0.0092","0.0639"
"2024-04-14 00:00:00.0","1016.0846","13.4757","1309.7292","0.4472","3.6531","0.6019","91.3097","3.8923","0.5107","0.0317","0.0674","0.0096","0.0105","0.0679"
"2024-04-13 00:00:00.0","1016.2783","16.6745","1310.6917","0.4188","3.6226","0.6012","91.4590","3.7938","0.5104","0.0315","0.0676","0.0098","0.0108","0.0758"
"2024-04-12 00:00:00.0","1015.4781","17.2548","1308.1703","0.4420","3.7645","0.6026","91.2451","3.7889","0.5539","0.0345","0.0735","0.0101","0.0112","0.0764"
"2024-04-11 00:00:00.0","1025.8422","24.5458","1314.2414","0.5676","3.5806","0.6093","90.4085","4.4282","0.7394","0.0477","0.1037","0.0137","0.0150","0.0957"
"2024-04-10 00:00:00.0","1028.4086","32.1013","1317.1764","0.5177","3.5320","0.6096","90.3780","4.5753","0.7001","0.0456","0.0987","0.0145","0.0162","0.1220"
"2024-04-09 00:00:00.0","1030.6272","37.1642","1317.3745","0.5919","3.5161","0.6120","90.0902","4.7461","0.7356","0.0467","0.0997","0.0143","0.0162","0.1432"
"2024-04-08 00:00:00.0","1018.8404","29.9142","1310.6770","0.5351","3.5772","0.6042","91.2237","3.8446","0.5790","0.0340","0.0697","0.0098","0.0110","0.1159"
"2024-04-07 00:00:00.0","1020.5108","26.4656","1312.5381","0.5784","3.4368","0.6045","91.1876","3.9801","0.5873","0.0342","0.0712","0.0097","0.0110","0.1039"
"2024-04-06 00:00:00.0","1021.6292","21.3047","1315.9683","0.5719","3.2081","0.6027","91.4524","4.0167","0.5484","0.0312","0.0645","0.0090","0.0100","0.0879"
"2024-04-05 00:00:00.0","1022.4182","30.1388","1314.1235","0.5434","3.4501","0.6053","91.0743","4.0814","0.6021","0.0358","0.0747","0.0105","0.0117","0.1161"
"2024-04-04 00:00:00.0","1013.1321","22.7297","1307.1866","0.4324","3.7428","0.6007","91.5494","3.6154","0.4683","0.0267","0.0554","0.0081","0.0092","0.0923"
"2024-04-03 00:00:00.0","1002.2329","2.3736","1299.3540","0.3664","3.9582","0.5949","92.2136","3.0174","0.3308","0.0181","0.0362","0.0047","0.0053","0.0495"
"2024-04-02 00:00:00.0","1000.7535","-1.4161","1298.2576","0.3555","3.9928","0.5942","92.3174","2.9108","0.3168","0.0169","0.0334","0.0043","0.0048","0.0473"
"2024-04-01 00:00:00.0","1010.6053","12.1798","1305.8096","0.4125","3.7591","0.5989","91.8476","3.2950","0.5028","0.0303","0.0642","0.0086","0.0094","0.0705"
"2024-03-31 00:00:00.0","1016.7436","20.2256","1309.7840","0.4778","3.6358","0.6026","91.2348","3.9567","0.5094","0.0273","0.0550","0.0080","0.0090","0.0862"
"2024-03-30 00:00:00.0","1013.1472","24.2591","1306.3039","0.4395","3.8099","0.6015","91.3478","3.7860","0.4274","0.0238","0.0497","0.0079","0.0091","0.0988"
"2024-03-29 00:00:00.0","1015.5673","24.1924","1308.8621","0.4720","3.6637","0.6020","91.3327","3.8776","0.4625","0.0254","0.0519","0.0077","0.0087","0.0978"
"2024-03-28 00:00:00.0","1011.8616","23.6073","1307.3973","0.4036","3.7015","0.5990","91.9522","3.2388","0.4927","0.0304","0.0648","0.0095","0.0109","0.0956"
"2024-03-27 00:00:00.0","1005.6768","19.0143","1303.7671","0.3160","3.8300","0.5950","92.5176","2.7216","0.4246","0.0275","0.0605","0.0095","0.0112","0.0815"
"2024-03-26 00:00:00.0","1001.8715","20.2164","1301.1232","0.2350","3.9848","0.5929","92.7480","2.5201","0.3288","0.0237","0.0532","0.0090","0.0100","0.0876"
"2024-03-25 00:00:00.0","1007.1331","22.1695","1304.2659","0.3166","3.8616","0.5963","92.2003","3.0774","0.3623","0.0230","0.0490","0.0081","0.0093","0.0923"
"2024-03-24 00:00:00.0","1014.1560","28.7520","1310.4350","0.3578","3.6261","0.5989","92.0997","3.1535","0.5014","0.0355","0.0827","0.0136","0.0154","0.1144"
"2024-03-23 00:00:00.0","1015.8485","29.9956","1311.7747","0.4011","3.5314","0.5997","92.0625","3.1943","0.5369","0.0388","0.0896","0.0143","0.0157","0.1155"
"2024-03-22 00:00:00.0","1015.1749","24.9158","1311.4759","0.4434","3.4597","0.5992","92.0386","3.3252","0.5112","0.0323","0.0689","0.0107","0.0119","0.0982"
"2024-03-21 00:00:00.0","1015.2577","25.2479","1311.4210","0.4433","3.4687","0.5993","92.0119","3.3414","0.5118","0.0323","0.0689","0.0106","0.0119","0.0993"
"2024-03-20 00:00:00.0","1021.2192","32.2393","1315.1409","0.4623","3.4222","0.6030","91.5534","3.7134","0.5675","0.0384","0.0837","0.0143","0.0169","0.1279"
"2024-03-19 00:00:00.0","1013.0256","28.3578","1308.2197","0.3681","3.7449","0.5996","91.8040","3.4094","0.4489","0.0299","0.0634","0.0102","0.0111","0.1100"
"2024-03-18 00:00:00.0","1009.4223","24.5859","1306.9100","0.2602","3.8376","0.5966","92.1623","3.1588","0.3814","0.0260","0.0551","0.0096","0.0106","0.0987"
"2024-03-17 00:00:00.0","1004.3115","17.6867","1304.6807","0.1995","3.8601","0.5926","92.7066","2.7781","0.2937","0.0206","0.0433","0.0082","0.0090","0.0809"
"2024-03-16 00:00:00.0","1011.1031","25.6497","1305.4680","0.2940","3.9968","0.5999","91.5825","3.4825","0.4294","0.0290","0.0614","0.0107","0.0117","0.1020"
"2024-03-15 00:00:00.0","1007.5305","23.5516","1303.8598","0.2451","4.0262","0.5971","91.9705","3.2017","0.3607","0.0254","0.0540","0.0098","0.0108","0.0959"
"2024-03-14 00:00:00.0","1014.1524","21.9473","1309.6582","0.3491","3.7078","0.5996","91.7672","3.4627","0.4968","0.0332","0.0713","0.0104","0.0110","0.0906"
"2024-03-13 00:00:00.0","1026.3338","31.5742","1317.1754","0.5359","3.3964","0.6071","90.9983","4.0219","0.7331","0.0493","0.1081","0.0148","0.0162","0.1260"
"2024-03-12 00:00:00.0","1015.5341","24.0525","1310.7766","0.3552","3.6719","0.6002","91.7666","3.4312","0.5349","0.0364","0.0803","0.0115","0.0126","0.0993"
"2024-03-11 00:00:00.0","1004.9559","14.2024","1302.1304","0.2484","4.0379","0.5956","92.1612","3.0130","0.3665","0.0265","0.0581","0.0091","0.0099","0.0696"
"2024-03-10 00:00:00.0","1004.1365","26.7644","1299.3812","0.1973","4.3097","0.5972","91.9092","3.0383","0.3360","0.0229","0.0516","0.0114","0.0135","0.1101"
"2024-03-09 00:00:00.0","1000.8614","37.8975","1295.5463","0.1043","4.6116","0.5968","92.0060","2.7237","0.3048","0.0198","0.0484","0.0150","0.0187","0.1477"
"2024-03-08 00:00:00.0","1001.0139","37.4947","1295.7754","0.1059","4.5973","0.5968","92.0116","2.7301","0.3061","0.0199","0.0490","0.0151","0.0190","0.1460"
"2024-03-07 00:00:00.0","1000.4768","34.1149","1295.5714","0.1108","4.5799","0.5963","92.0489","2.7186","0.3048","0.0203","0.0505","0.0154","0.0191","0.1319"
"2024-03-06 00:00:00.0","1006.8164","23.6940","1304.6186","0.2498","3.9154","0.5956","92.3988","2.8485","0.3496","0.0288","0.0776","0.0160","0.0181","0.0973"
"2024-03-05 00:00:00.0","1000.8032","9.1082","1299.4093","0.2475","4.0591","0.5932","92.5668","2.6335","0.3358","0.0242","0.0550","0.0088","0.0095","0.0598"
"2024-03-04 00:00:00.0","1002.1000","10.3294","1300.1428","0.2491","4.0607","0.5941","92.3796","2.8313","0.3256","0.0220","0.0516","0.0083","0.0093","0.0625"
"2024-03-03 00:00:00.0","1004.4693","6.9906","1301.9780","0.3066","3.9383","0.5952","92.1864","3.0824","0.3536","0.0208","0.0433","0.0062","0.0067","0.0557"
"2024-03-02 00:00:00.0","1009.5644","17.7542","1305.9154","0.3187","3.8411","0.5976","92.0234","3.1843","0.4391","0.0270","0.0573","0.0084","0.0093","0.0916"
"2024-03-01 00:00:00.0","1019.5796","52.7918","1317.0782","0.1846","3.5923","0.5993","92.3027","3.1367","0.4078","0.0349","0.0823","0.0157","0.0186","0.2244"
"2024-02-29 00:00:00.0","1016.5146","48.4701","1314.4770","0.1950","3.6447","0.5980","92.4045","3.0264","0.3899","0.0321","0.0751","0.0139","0.0164","0.2020"
"2024-02-28 00:00:00.0","1002.8509","19.2153","1303.0813","0.2279","3.8777","0.5923","92.8535","2.5605","0.3029","0.0221","0.0487","0.0080","0.0089","0.0900"
"2024-02-27 00:00:00.0","997.4090","0.8513","1298.6046","0.2330","3.9763","0.5899","93.0261","2.3937","0.2577","0.0181","0.0382","0.0061","0.0064","0.0444"
"2024-02-26 00:00:00.0","996.5305","2.2750","1297.0116","0.2316","4.0696","0.5903","92.9347","2.3922","0.2571","0.0179","0.0380","0.0060","0.0064","0.0466"
"2024-02-25 00:00:00.0","997.0381","6.5410","1297.4374","0.2321","4.0583","0.5905","92.9323","2.3968","0.2574","0.0179","0.0381","0.0060","0.0063","0.0548"
"2024-02-24 00:00:00.0","996.7699","4.8191","1297.2093","0.2317","4.0648","0.5904","92.9358","2.3918","0.2565","0.0178","0.0379","0.0060","0.0063","0.0515"
"2024-02-23 00:00:00.0","1000.2985","0.5576","1300.2579","0.2695","3.9274","0.5918","92.7856","2.5603","0.3289","0.0220","0.0461","0.0063","0.0066","0.0472"
"2024-02-22 00:00:00.0","1006.3451","3.9308","1308.0931","0.2394","3.6118","0.5919","92.8254","2.8736","0.3175","0.0198","0.0421","0.0059","0.0066","0.0577"
"2024-02-21 00:00:00.0","1015.5410","27.8369","1318.8847","0.1775","3.2511","0.5929","92.8314","3.2741","0.2714","0.0201","0.0456","0.0086","0.0100","0.1101"
"2024-02-20 00:00:00.0","1015.4260","31.0253","1318.1307","0.1751","3.3124","0.5934","92.7880","3.2305","0.2816","0.0213","0.0486","0.0092","0.0108","0.1224"
"2024-02-19 00:00:00.0","1016.1685","37.2172","1317.7809","0.1749","3.3786","0.5946","92.6999","3.1918","0.3057","0.0242","0.0557","0.0105","0.0123","0.1464"
"2024-02-18 00:00:00.0","1010.7961","21.2927","1316.9161","0.1488","3.2251","0.5891","93.3808","2.8810","0.2106","0.0150","0.0339","0.0063","0.0073","0.0911"
"2024-02-17 00:00:00.0","1008.1787","-2.0911","1316.9823","0.1758","3.0499","0.5860","93.7931","2.6890","0.2042","0.0122","0.0263","0.0041","0.0047","0.0407"
"2024-02-16 00:00:00.0","1009.1788","-10.4366","1317.2538","0.1977","3.0438","0.5869","93.6055","2.8408","0.2345","0.0129","0.0275","0.0038","0.0042","0.0293"
"2024-02-15 00:00:00.0","1009.1435","-13.2511","1317.4108","0.1904","3.0402","0.5868","93.6046","2.8707","0.2234","0.0116","0.0243","0.0035","0.0039","0.0274"
"2024-02-14 00:00:00.0","1011.9617","-8.4972","1318.9866","0.2372","2.9758","0.5886","93.3844","3.0344","0.2793","0.0151","0.0319","0.0044","0.0049","0.0325"
"2024-02-13 00:00:00.0","1008.1237","-13.4982","1317.0371","0.1949","3.0141","0.5859","93.7633","2.7533","0.2048","0.0115","0.0246","0.0036","0.0040","0.0258"
"2024-02-12 00:00:00.0","1007.8182","-13.5352","1316.6502","0.1935","3.0337","0.5859","93.7606","2.7382","0.2046","0.0115","0.0245","0.0036","0.0040","0.0257"
"2024-02-11 00:00:00.0","1007.5989","-15.3341","1316.4789","0.1950","3.0348","0.5858","93.7758","2.7208","0.2059","0.0116","0.0246","0.0036","0.0039","0.0240"
"2024-02-10 00:00:00.0","1006.6652","-17.4619","1316.5671","0.1864","2.9942","0.5846","94.0080","2.5415","0.2018","0.0117","0.0251","0.0036","0.0040","0.0237"
"2024-02-09 00:00:00.0","1004.7866","-13.0952","1315.6225","0.1057","3.1037","0.5833","94.1410","2.4430","0.1391","0.0091","0.0198","0.0038","0.0043","0.0305"
"2024-02-08 00:00:00.0","1009.1700","-11.1580","1317.5228","0.1381","3.1118","0.5867","93.5344","2.9773","0.1603","0.0103","0.0225","0.0041","0.0048","0.0365"
"2024-02-07 00:00:00.0","1019.2613","10.6521","1321.9823","0.2111","3.1255","0.5945","92.4279","3.8439","0.2252","0.0154","0.0337","0.0088","0.0112","0.0974"
"2024-02-06 00:00:00.0","1031.2181","46.9811","1326.8138","0.2914","3.1866","0.6041","91.1961","4.6903","0.3198","0.0254","0.0586","0.0178","0.0228","0.1911"
"2024-02-05 00:00:00.0","1032.9333","47.4940","1327.3159","0.3032","3.2112","0.6056","91.0105","4.7605","0.3636","0.0327","0.0781","0.0216","0.0261","0.1924"
